Timestamp, Local Timestamp, ID, PM25, PM10, Co2, Temperature, Relative Humidity, Monitor ID, O3
2022-03-15T13:22:38Z,03/15/22 09:22,7656625,0.393,0.0,852,20.7,26.5,92,0.0
2022-03-15T13:23:38Z,03/15/22 09:23,7656636,0.44400000000000006,0.0,734,20.9,26.1,92,0.0
2022-03-15T13:24:38Z,03/15/22 09:24,7656648,0.417,0.0,682,21.0,25.9,92,0.0
2022-03-15T13:25:39Z,03/15/22 09:25,7656662,0.44800000000000006,0.002,645,21.1,25.7,92,0.0
2022-03-15T13:26:38Z,03/15/22 09:26,7656677,0.399,0.0,638,21.2,25.6,92,0.0
2022-03-15T13:27:38Z,03/15/22 09:27,7656693,0.397,0.002,641,21.3,25.4,92,0.0
2022-03-15T13:28:38Z,03/15/22 09:28,7656708,0.454,0.002,639,21.4,25.2,92,0.0
2022-03-15T13:29:38Z,03/15/22 09:29,7656725,0.44699999999999995,0.0,635,21.5,25.2,92,0.0
2022-03-15T13:30:38Z,03/15/22 09:30,7656741,0.414,0.0,635,21.6,25.0,92,0.0
2022-03-15T13:31:38Z,03/15/22 09:31,7656756,0.40499999999999997,0.0,634,21.7,25.0,92,0.0
2022-03-15T13:32:39Z,03/15/22 09:32,7656773,0.433,0.002,628,21.8,24.8,92,0.0
2022-03-15T13:33:38Z,03/15/22 09:33,7656788,0.42300000000000004,0.0,618,21.8,24.7,92,0.0
2022-03-15T13:34:38Z,03/15/22 09:34,7656805,0.32999999999999996,0.0,619,21.9,24.6,92,2.0
2022-03-15T13:35:38Z,03/15/22 09:35,7656821,0.306,0.0,654,21.9,24.5,92,2.0
2022-03-15T13:36:38Z,03/15/22 09:36,7656836,0.31,0.002,650,22.0,24.5,92,1.0
2022-03-15T13:37:39Z,03/15/22 09:37,7656851,0.337,0.002,666,22.1,24.5,92,0.0
2022-03-15T13:38:38Z,03/15/22 09:38,7656866,0.369,0.0,697,22.2,24.5,92,0.0
2022-03-15T13:39:38Z,03/15/22 09:39,7656883,0.29700000000000004,0.0,714,22.2,24.4,92,2.0
2022-03-15T13:40:38Z,03/15/22 09:40,7656897,0.351,0.0,688,22.3,24.3,92,2.0
2022-03-15T13:41:38Z,03/15/22 09:41,7656913,0.44800000000000006,0.002,680,22.4,24.2,92,2.0
2022-03-15T13:42:38Z,03/15/22 09:42,7656928,0.24,0.0,663,22.4,24.1,92,2.0
2022-03-15T13:43:38Z,03/15/22 09:43,7656943,0.492,0.0,669,22.4,24.0,92,2.0
2022-03-15T13:44:38Z,03/15/22 09:44,7656958,0.304,0.002,667,22.4,23.9,92,2.0
2022-03-15T13:45:38Z,03/15/22 09:45,7656974,0.414,0.0,653,22.5,23.9,92,4.0
2022-03-15T13:46:38Z,03/15/22 09:46,7656991,0.357,0.0,657,22.6,23.8,92,4.0
2022-03-15T13:47:38Z,03/15/22 09:47,7657005,0.366,0.0,662,22.6,23.7,92,2.0
2022-03-15T13:48:38Z,03/15/22 09:48,7657021,0.352,0.002,668,22.6,23.7,92,3.0
2022-03-15T13:49:39Z,03/15/22 09:49,7657036,0.397,0.002,663,22.7,23.6,92,3.0
2022-03-15T13:50:38Z,03/15/22 09:50,7657052,0.47300000000000003,0.004,654,22.7,23.6,92,3.0
2022-03-15T13:51:38Z,03/15/22 09:51,7657066,0.475,0.002,654,22.8,23.5,92,4.0
2022-03-15T13:52:38Z,03/15/22 09:52,7657082,0.373,0.002,652,22.8,23.5,92,4.0
2022-03-15T13:53:38Z,03/15/22 09:53,7657098,0.396,0.0,654,22.9,23.4,92,4.0
2022-03-15T13:54:38Z,03/15/22 09:54,7657113,0.513,0.0,659,22.9,23.3,92,4.0
2022-03-15T13:55:38Z,03/15/22 09:55,7657129,0.343,0.002,669,22.9,23.3,92,4.0
2022-03-15T13:56:38Z,03/15/22 09:56,7657145,0.44400000000000006,0.0,659,23.0,23.2,92,3.0
2022-03-15T13:57:38Z,03/15/22 09:57,7657159,0.528,0.0,663,23.0,23.2,92,5.0
2022-03-15T13:58:38Z,03/15/22 09:58,7657175,0.409,0.002,668,23.0,23.1,92,4.0
2022-03-15T13:59:38Z,03/15/22 09:59,7657190,0.434,0.004,661,23.0,23.1,92,5.0
2022-03-15T14:00:38Z,03/15/22 10:00,7657206,0.331,0.002,671,23.0,23.1,92,4.0
2022-03-15T14:01:39Z,03/15/22 10:01,7657221,0.483,0.0,669,23.0,23.1,92,5.0
2022-03-15T14:02:38Z,03/15/22 10:02,7657236,0.417,0.0,684,23.0,23.1,92,5.0
2022-03-15T14:03:38Z,03/15/22 10:03,7657251,0.42000000000000004,0.0,661,23.0,23.0,92,3.0
2022-03-15T14:04:38Z,03/15/22 10:04,7657267,0.47800000000000004,0.002,669,23.0,23.0,92,4.0
2022-03-15T14:05:38Z,03/15/22 10:05,7657283,0.46799999999999997,0.0,663,23.1,22.9,92,5.0
2022-03-15T14:06:38Z,03/15/22 10:06,7657299,0.418,0.002,669,23.1,22.9,92,5.0
2022-03-15T14:07:38Z,03/15/22 10:07,7657315,0.517,0.002,662,23.1,22.9,92,5.0
2022-03-15T14:08:39Z,03/15/22 10:08,7657330,0.441,0.0,659,23.1,22.8,92,5.0
2022-03-15T14:09:38Z,03/15/22 10:09,7657346,0.343,0.002,657,23.1,22.8,92,5.0
2022-03-15T14:10:38Z,03/15/22 10:10,7657364,0.465,0.0,662,23.1,22.8,92,5.0
2022-03-15T14:11:38Z,03/15/22 10:11,7657378,0.44400000000000006,0.0,650,23.1,22.8,92,5.0
2022-03-15T14:12:38Z,03/15/22 10:12,7657394,0.43200000000000005,0.0,665,23.2,22.8,92,6.0
2022-03-15T14:13:38Z,03/15/22 10:13,7657410,0.509,0.004,667,23.2,22.8,92,4.0
2022-03-15T14:14:38Z,03/15/22 10:14,7657426,0.40599999999999997,0.002,655,23.2,22.8,92,5.0
2022-03-15T14:15:39Z,03/15/22 10:15,7657440,0.33599999999999997,0.0,678,23.2,22.8,92,4.0
2022-03-15T14:16:38Z,03/15/22 10:16,7657455,0.399,0.0,670,23.2,22.8,92,5.0
2022-03-15T14:17:38Z,03/15/22 10:17,7657471,0.43499999999999994,0.0,681,23.2,22.8,92,5.0
2022-03-15T14:18:38Z,03/15/22 10:18,7657488,0.43899999999999995,0.002,686,23.2,22.7,92,5.0
2022-03-15T14:19:38Z,03/15/22 10:19,7657505,0.532,0.002,663,23.2,22.7,92,5.0
2022-03-15T14:20:38Z,03/15/22 10:20,7657520,0.42300000000000004,0.0,673,23.2,22.7,92,4.0
2022-03-15T14:21:38Z,03/15/22 10:21,7657535,0.53,0.004,668,23.2,22.7,92,7.0
2022-03-15T14:22:38Z,03/15/22 10:22,7657552,0.462,0.0,685,23.2,22.7,92,7.0
2022-03-15T14:23:38Z,03/15/22 10:23,7657568,0.437,0.004,688,23.2,22.6,92,7.0
2022-03-15T14:24:38Z,03/15/22 10:24,7657583,0.351,0.0,683,23.2,22.6,92,5.0
2022-03-15T14:25:38Z,03/15/22 10:25,7657600,0.43499999999999994,0.0,676,23.2,22.6,92,5.0
2022-03-15T14:26:38Z,03/15/22 10:26,7657616,0.5469999999999999,0.002,678,23.2,22.6,92,5.0
2022-03-15T14:27:39Z,03/15/22 10:27,7657631,0.384,0.0,668,23.2,22.6,92,5.0
2022-03-15T14:28:38Z,03/15/22 10:28,7657649,0.381,0.0,665,23.2,22.6,92,6.0
2022-03-15T14:29:38Z,03/15/22 10:29,7657663,0.502,0.002,667,23.2,22.6,92,6.0
2022-03-15T14:30:38Z,03/15/22 10:30,7657679,0.33599999999999997,0.0,667,23.2,22.6,92,5.0
2022-03-15T14:31:38Z,03/15/22 10:31,7657695,0.313,0.002,683,23.2,22.6,92,6.0
2022-03-15T14:32:38Z,03/15/22 10:32,7657712,0.454,0.002,670,23.2,22.6,92,5.0
2022-03-15T14:33:38Z,03/15/22 10:33,7657728,0.40499999999999997,0.0,670,23.2,22.5,92,6.0
2022-03-15T14:34:39Z,03/15/22 10:34,7657743,0.492,0.0,670,23.2,22.5,92,6.0
2022-03-15T14:35:38Z,03/15/22 10:35,7657759,0.44699999999999995,0.0,655,23.2,22.5,92,6.0
2022-03-15T14:36:38Z,03/15/22 10:36,7657775,0.526,0.002,670,23.2,22.5,92,6.0
2022-03-15T14:37:38Z,03/15/22 10:37,7657792,0.397,0.002,657,23.2,22.5,92,6.0
2022-03-15T14:38:38Z,03/15/22 10:38,7657807,0.523,0.002,662,23.2,22.4,92,6.0
2022-03-15T14:39:38Z,03/15/22 10:39,7657823,0.496,0.002,657,23.2,22.4,92,6.0
2022-03-15T14:40:38Z,03/15/22 10:40,7657839,0.44400000000000006,0.0,665,23.2,22.4,92,6.0
2022-03-15T14:41:38Z,03/15/22 10:41,7657855,0.534,0.0,654,23.2,22.4,92,7.0
2022-03-15T14:42:38Z,03/15/22 10:42,7657872,0.5309999999999999,0.0,652,23.3,22.4,92,7.0
2022-03-15T14:43:38Z,03/15/22 10:43,7657887,0.414,0.0,675,23.3,22.4,92,7.0
2022-03-15T14:44:38Z,03/15/22 10:44,7657904,0.548,0.004,665,23.3,22.4,92,6.0
2022-03-15T14:45:38Z,03/15/22 10:45,7657919,0.41500000000000004,0.002,673,23.3,22.4,92,6.0
2022-03-15T14:46:38Z,03/15/22 10:46,7657935,0.453,0.0,678,23.3,22.4,92,7.0
2022-03-15T14:47:38Z,03/15/22 10:47,7657951,0.445,0.002,674,23.3,22.4,92,6.0
2022-03-15T14:48:38Z,03/15/22 10:48,7657968,0.51,0.0,674,23.3,22.4,92,6.0
2022-03-15T14:49:38Z,03/15/22 10:49,7657984,0.492,0.0,669,23.3,22.4,92,6.0
2022-03-15T14:50:38Z,03/15/22 10:50,7657999,0.43200000000000005,0.0,687,23.3,22.4,92,6.0
2022-03-15T14:51:38Z,03/15/22 10:51,7658016,0.393,0.0,658,23.3,22.4,92,6.0
2022-03-15T14:52:38Z,03/15/22 10:52,7658031,0.627,0.0,671,23.3,22.4,92,6.0
2022-03-15T14:53:38Z,03/15/22 10:53,7658047,0.516,0.0,679,23.3,22.4,92,7.0
2022-03-15T14:54:38Z,03/15/22 10:54,7658063,0.45599999999999996,0.0,661,23.3,22.4,92,6.0
2022-03-15T14:55:38Z,03/15/22 10:55,7658080,0.421,0.002,684,23.3,22.4,92,7.0
2022-03-15T14:56:38Z,03/15/22 10:56,7658095,0.529,0.002,687,23.3,22.4,92,7.0
2022-03-15T14:57:38Z,03/15/22 10:57,7658111,0.40800000000000003,0.0,672,23.3,22.4,92,7.0
2022-03-15T14:58:38Z,03/15/22 10:58,7658128,0.5429999999999999,0.0,669,23.3,22.4,92,7.0
2022-03-15T14:59:38Z,03/15/22 10:59,7658143,0.499,0.002,687,23.4,22.4,92,6.0
2022-03-15T15:00:38Z,03/15/22 11:00,7658160,0.502,0.002,695,23.4,22.4,92,6.0
2022-03-15T15:01:38Z,03/15/22 11:01,7658176,0.40499999999999997,0.0,687,23.4,22.4,92,6.0
2022-03-15T15:02:38Z,03/15/22 11:02,7658191,0.42000000000000004,0.0,685,23.4,22.4,92,6.0
2022-03-15T15:03:38Z,03/15/22 11:03,7658207,0.536,0.004,682,23.4,22.4,92,6.0
2022-03-15T15:04:38Z,03/15/22 11:04,7658223,0.365,0.004,697,23.4,22.4,92,6.0
2022-03-15T15:05:38Z,03/15/22 11:05,7658240,0.39,0.0,688,23.4,22.4,92,6.0
2022-03-15T15:06:38Z,03/15/22 11:06,7658256,0.5700000000000001,0.0,692,23.4,22.4,92,6.0
2022-03-15T15:07:38Z,03/15/22 11:07,7658272,0.499,0.002,702,23.4,22.4,92,6.0
2022-03-15T15:08:38Z,03/15/22 11:08,7658288,0.512,0.004,687,23.4,22.3,92,7.0
2022-03-15T15:09:39Z,03/15/22 11:09,7658303,0.481,0.002,687,23.5,22.4,92,6.0
2022-03-15T15:10:38Z,03/15/22 11:10,7658320,0.606,0.0,694,23.5,22.4,92,6.0
2022-03-15T15:11:38Z,03/15/22 11:11,7658336,0.40800000000000003,0.0,704,23.5,22.4,92,6.0
2022-03-15T15:12:38Z,03/15/22 11:12,7658351,0.47800000000000004,0.002,698,23.5,22.4,92,4.0
2022-03-15T15:13:38Z,03/15/22 11:13,7658366,0.382,0.002,711,23.5,22.4,92,6.0
2022-03-15T15:14:38Z,03/15/22 11:14,7658381,0.583,0.002,703,23.5,22.4,92,6.0
2022-03-15T15:15:38Z,03/15/22 11:15,7658396,0.517,0.002,699,23.5,22.3,92,6.0
2022-03-15T15:16:38Z,03/15/22 11:16,7658412,0.43499999999999994,0.0,703,23.5,22.3,92,6.0
2022-03-15T15:17:38Z,03/15/22 11:17,7658427,0.501,0.0,679,23.6,22.3,92,6.0
2022-03-15T15:18:38Z,03/15/22 11:18,7658442,0.513,0.0,704,23.6,22.3,92,6.0
2022-03-15T15:19:38Z,03/15/22 11:19,7658458,0.457,0.002,704,23.6,22.3,92,6.0
2022-03-15T15:20:38Z,03/15/22 11:20,7658474,0.54,0.0,698,23.6,22.3,92,6.0
2022-03-15T15:21:38Z,03/15/22 11:21,7658489,0.476,0.004,690,23.6,22.3,92,6.0
2022-03-15T15:22:38Z,03/15/22 11:22,7658506,0.454,0.002,697,23.6,22.3,92,6.0
2022-03-15T15:23:38Z,03/15/22 11:23,7658521,0.546,0.0,703,23.6,22.3,92,6.0
2022-03-15T15:24:38Z,03/15/22 11:24,7658538,0.553,0.002,703,23.6,22.3,92,6.0
2022-03-15T15:25:38Z,03/15/22 11:25,7658554,0.44800000000000006,0.002,697,23.6,22.3,92,6.0
2022-03-15T15:26:38Z,03/15/22 11:26,7658570,0.49800000000000005,0.0,707,23.7,22.3,92,6.0
2022-03-15T15:27:38Z,03/15/22 11:27,7658585,0.481,0.002,709,23.7,22.3,92,6.0
2022-03-15T15:28:38Z,03/15/22 11:28,7658601,0.628,0.002,703,23.7,22.3,92,5.0
2022-03-15T15:29:38Z,03/15/22 11:29,7658617,0.499,0.002,703,23.7,22.3,92,6.0
2022-03-15T15:30:38Z,03/15/22 11:30,7658634,0.675,0.0,705,23.7,22.3,92,6.0
2022-03-15T15:31:38Z,03/15/22 11:31,7658650,0.661,0.002,691,23.7,22.3,92,6.0
2022-03-15T15:32:38Z,03/15/22 11:32,7658666,0.5429999999999999,0.0,695,23.7,22.3,92,7.0
2022-03-15T15:33:38Z,03/15/22 11:33,7658682,0.512,0.004,685,23.7,22.3,92,7.0
2022-03-15T15:34:38Z,03/15/22 11:34,7658697,0.45,0.0,698,23.7,22.3,92,7.0
2022-03-15T15:35:38Z,03/15/22 11:35,7658713,0.5309999999999999,0.0,707,23.7,22.2,92,7.0
2022-03-15T15:36:38Z,03/15/22 11:36,7658730,0.505,0.002,685,23.7,22.2,92,6.0
2022-03-15T15:37:38Z,03/15/22 11:37,7658746,0.5599999999999999,0.004,691,23.7,22.2,92,7.0
2022-03-15T15:38:38Z,03/15/22 11:38,7658762,0.422,0.004,685,23.7,22.2,92,6.0
2022-03-15T15:39:38Z,03/15/22 11:39,7658778,0.537,0.0,680,23.7,22.2,92,6.0
2022-03-15T15:40:38Z,03/15/22 11:40,7658794,0.472,0.002,677,23.7,22.2,92,7.0
2022-03-15T15:41:38Z,03/15/22 11:41,7658810,0.481,0.002,670,23.7,22.2,92,7.0
2022-03-15T15:42:38Z,03/15/22 11:42,7658825,0.41500000000000004,0.002,677,23.7,22.2,92,7.0
2022-03-15T15:43:38Z,03/15/22 11:43,7658842,0.5940000000000001,0.0,686,23.7,22.1,92,7.0
2022-03-15T15:44:38Z,03/15/22 11:44,7658857,0.45,0.0,665,23.7,22.1,92,7.0
2022-03-15T15:45:38Z,03/15/22 11:45,7658875,0.484,0.002,677,23.7,22.1,92,7.0
2022-03-15T15:46:38Z,03/15/22 11:46,7658891,0.485,0.004,662,23.6,22.1,92,7.0
2022-03-15T15:47:38Z,03/15/22 11:47,7658906,0.53,0.004,654,23.7,22.1,92,7.0
2022-03-15T15:48:38Z,03/15/22 11:48,7658922,0.481,0.002,654,23.7,22.1,92,7.0
2022-03-15T15:49:38Z,03/15/22 11:49,7658937,0.596,0.004,657,23.7,22.1,92,7.0
2022-03-15T15:50:38Z,03/15/22 11:50,7658954,0.636,0.0,660,23.7,22.1,92,7.0
2022-03-15T15:51:38Z,03/15/22 11:51,7658970,0.399,0.0,657,23.7,22.1,92,7.0
2022-03-15T15:52:38Z,03/15/22 11:52,7658985,0.44800000000000006,0.002,670,23.7,22.1,92,8.0
2022-03-15T15:53:38Z,03/15/22 11:53,7659002,0.588,0.0,670,23.7,22.1,92,7.0
2022-03-15T15:54:38Z,03/15/22 11:54,7659018,0.41200000000000003,0.002,662,23.7,22.1,92,8.0
2022-03-15T15:55:38Z,03/15/22 11:55,7659034,0.5519999999999999,0.0,659,23.7,22.1,92,8.0
2022-03-15T15:56:38Z,03/15/22 11:56,7659049,0.571,0.002,656,23.7,22.1,92,8.0
2022-03-15T15:57:38Z,03/15/22 11:57,7659066,0.587,0.004,659,23.7,22.1,92,8.0
2022-03-15T15:58:38Z,03/15/22 11:58,7659082,0.526,0.002,656,23.7,22.1,92,7.0
2022-03-15T15:59:38Z,03/15/22 11:59,7659098,0.441,0.006,667,23.7,22.1,92,8.0
2022-03-15T16:00:38Z,03/15/22 12:00,7659114,0.534,0.0,656,23.7,22.1,92,8.0
2022-03-15T16:01:38Z,03/15/22 12:01,7659129,0.40599999999999997,0.002,662,23.7,22.1,92,8.0
2022-03-15T16:02:38Z,03/15/22 12:02,7659146,0.45899999999999996,0.0,677,23.7,22.1,92,8.0
2022-03-15T16:03:38Z,03/15/22 12:03,7659162,0.537,0.0,665,23.7,22.1,92,8.0
2022-03-15T16:04:38Z,03/15/22 12:04,7659178,0.51,0.0,662,23.7,22.1,92,7.0
2022-03-15T16:05:38Z,03/15/22 12:05,7659194,0.622,0.002,677,23.7,22.1,92,7.0
2022-03-15T16:06:38Z,03/15/22 12:06,7659210,0.558,0.0,690,23.7,22.1,92,7.0
2022-03-15T16:07:38Z,03/15/22 12:07,7659226,0.483,0.006,686,23.7,22.1,92,8.0
2022-03-15T16:08:38Z,03/15/22 12:08,7659241,0.597,0.006,677,23.7,22.1,92,8.0
2022-03-15T16:09:38Z,03/15/22 12:09,7659257,0.47800000000000004,0.002,680,23.7,22.1,92,8.0
2022-03-15T16:10:38Z,03/15/22 12:10,7659272,0.747,0.0,677,23.7,22.1,92,8.0
2022-03-15T16:11:38Z,03/15/22 12:11,7659287,0.46299999999999997,0.002,680,23.7,22.1,92,7.0
2022-03-15T16:12:38Z,03/15/22 12:12,7659303,0.5549999999999999,0.0,658,23.7,22.1,92,8.0
2022-03-15T16:13:38Z,03/15/22 12:13,7659319,0.6519999999999999,0.002,666,23.7,22.1,92,8.0
2022-03-15T16:14:38Z,03/15/22 12:14,7659336,0.517,0.002,662,23.7,22.1,92,8.0
2022-03-15T16:15:38Z,03/15/22 12:15,7659351,0.42300000000000004,0.0,662,23.7,22.1,92,8.0
2022-03-15T16:16:38Z,03/15/22 12:16,7659368,0.628,0.002,671,23.7,22.1,92,8.0
2022-03-15T16:17:38Z,03/15/22 12:17,7659384,0.49400000000000005,0.004,677,23.7,22.1,92,8.0
2022-03-15T16:18:38Z,03/15/22 12:18,7659400,0.584,0.004,687,23.7,22.1,92,7.0
2022-03-15T16:19:38Z,03/15/22 12:19,7659416,0.522,0.0,668,23.7,22.1,92,8.0
2022-03-15T16:20:38Z,03/15/22 12:20,7659432,0.45599999999999996,0.0,681,23.7,22.1,92,8.0
2022-03-15T16:21:38Z,03/15/22 12:21,7659448,0.662,0.004,691,23.7,22.1,92,5.0
2022-03-15T16:22:38Z,03/15/22 12:22,7659464,0.5860000000000001,0.002,682,23.7,22.1,92,7.0
2022-03-15T16:23:38Z,03/15/22 12:23,7659480,0.562,0.002,686,23.7,22.1,92,8.0
2022-03-15T16:24:38Z,03/15/22 12:24,7659495,0.561,0.0,693,23.7,22.1,92,8.0
2022-03-15T16:25:38Z,03/15/22 12:25,7659511,0.5980000000000001,0.002,685,23.6,22.1,92,8.0
2022-03-15T16:26:38Z,03/15/22 12:26,7659528,0.44400000000000006,0.0,688,23.6,22.1,92,8.0
2022-03-15T16:27:38Z,03/15/22 12:27,7659543,0.545,0.004,678,23.6,22.1,92,8.0
2022-03-15T16:28:38Z,03/15/22 12:28,7659559,0.516,0.0,693,23.6,22.1,92,8.0
2022-03-15T16:29:38Z,03/15/22 12:29,7659576,0.519,0.0,680,23.6,22.2,92,8.0
2022-03-15T16:30:38Z,03/15/22 12:30,7659591,0.483,0.0,693,23.6,22.2,92,8.0
2022-03-15T16:31:38Z,03/15/22 12:31,7659608,0.576,0.0,680,23.6,22.2,92,8.0
2022-03-15T16:32:38Z,03/15/22 12:32,7659623,0.591,0.006,699,23.6,22.2,92,8.0
2022-03-15T16:33:38Z,03/15/22 12:33,7659639,0.529,0.002,679,23.5,22.2,92,9.0
2022-03-15T16:34:38Z,03/15/22 12:34,7659655,0.576,0.0,696,23.5,22.2,92,8.0
2022-03-15T16:35:38Z,03/15/22 12:35,7659670,0.675,0.0,691,23.5,22.3,92,8.0
2022-03-15T16:36:38Z,03/15/22 12:36,7659686,0.516,0.0,691,23.5,22.3,92,8.0
2022-03-15T16:37:38Z,03/15/22 12:37,7659701,0.587,0.004,694,23.5,22.3,92,8.0
2022-03-15T16:38:38Z,03/15/22 12:38,7659718,0.513,0.0,706,23.5,22.3,92,7.0
2022-03-15T16:39:38Z,03/15/22 12:39,7659736,0.5559999999999999,0.002,691,23.5,22.3,92,9.0
2022-03-15T16:40:38Z,03/15/22 12:40,7659750,0.52,0.002,699,23.5,22.3,92,8.0
2022-03-15T16:41:38Z,03/15/22 12:41,7659766,0.626,0.004,699,23.5,22.3,92,8.0
2022-03-15T16:42:38Z,03/15/22 12:42,7659782,0.51,0.0,689,23.5,22.3,92,8.0
2022-03-15T16:43:38Z,03/15/22 12:43,7659798,0.5730000000000001,0.0,681,23.5,22.3,92,8.0
2022-03-15T16:44:38Z,03/15/22 12:44,7659813,0.601,0.002,678,23.5,22.3,92,7.0
2022-03-15T16:45:38Z,03/15/22 12:45,7659830,0.513,0.0,678,23.5,22.3,92,8.0
2022-03-15T16:46:38Z,03/15/22 12:46,7659846,0.5860000000000001,0.002,683,23.5,22.3,92,8.0
2022-03-15T16:47:38Z,03/15/22 12:47,7659862,0.5940000000000001,0.0,673,23.5,22.3,92,8.0
2022-03-15T16:48:38Z,03/15/22 12:48,7659877,0.607,0.002,699,23.5,22.3,92,8.0
2022-03-15T16:49:38Z,03/15/22 12:49,7659894,0.542,0.004,679,23.5,22.3,92,8.0
2022-03-15T16:50:38Z,03/15/22 12:50,7659912,0.519,0.0,670,23.5,22.3,92,8.0
2022-03-15T16:51:38Z,03/15/22 12:51,7659925,0.507,0.0,681,23.5,22.3,92,8.0
2022-03-15T16:52:38Z,03/15/22 12:52,7659942,0.5309999999999999,0.0,681,23.5,22.3,92,8.0
2022-03-15T16:53:38Z,03/15/22 12:53,7659957,0.701,0.004,678,23.5,22.3,92,8.0
2022-03-15T16:54:38Z,03/15/22 12:54,7659974,0.493,0.002,689,23.5,22.3,92,8.0
2022-03-15T16:55:38Z,03/15/22 12:55,7659990,0.525,0.006,683,23.5,22.3,92,8.0
2022-03-15T16:56:38Z,03/15/22 12:56,7660006,0.576,0.0,686,23.5,22.4,92,8.0
2022-03-15T16:57:38Z,03/15/22 12:57,7660021,0.5549999999999999,0.0,687,23.5,22.4,92,8.0
2022-03-15T16:58:38Z,03/15/22 12:58,7660038,0.524,0.004,689,23.4,22.4,92,8.0
2022-03-15T16:59:38Z,03/15/22 12:59,7660054,0.619,0.002,681,23.4,22.4,92,7.0
2022-03-15T17:00:38Z,03/15/22 13:00,7660070,0.5,0.004,684,23.4,22.4,92,8.0
2022-03-15T17:01:38Z,03/15/22 13:01,7660088,0.6,0.0,678,23.5,22.4,92,8.0
2022-03-15T17:02:38Z,03/15/22 13:02,7660101,0.507,0.006,685,23.5,22.4,92,8.0
2022-03-15T17:03:38Z,03/15/22 13:03,7660118,0.475,0.002,675,23.5,22.4,92,8.0
2022-03-15T17:04:38Z,03/15/22 13:04,7660133,0.55,0.002,682,23.5,22.4,92,8.0
2022-03-15T17:05:38Z,03/15/22 13:05,7660150,0.5589999999999999,0.002,673,23.5,22.4,92,9.0
2022-03-15T17:06:38Z,03/15/22 13:06,7660166,0.534,0.0,682,23.5,22.4,92,9.0
2022-03-15T17:07:38Z,03/15/22 13:07,7660181,0.492,0.0,669,23.4,22.4,92,9.0
2022-03-15T17:08:38Z,03/15/22 13:08,7660197,0.579,0.0,675,23.4,22.4,92,9.0
2022-03-15T17:09:38Z,03/15/22 13:09,7660214,0.519,0.0,679,23.4,22.4,92,9.0
2022-03-15T17:10:38Z,03/15/22 13:10,7660229,0.588,0.0,684,23.4,22.4,92,9.0
2022-03-15T17:11:38Z,03/15/22 13:11,7660246,0.631,0.002,675,23.4,22.4,92,10.0
2022-03-15T17:12:38Z,03/15/22 13:12,7660262,0.589,0.002,677,23.4,22.4,92,10.0
2022-03-15T17:13:38Z,03/15/22 13:13,7660278,0.5730000000000001,0.0,692,23.4,22.4,92,10.0
2022-03-15T17:14:38Z,03/15/22 13:14,7660294,0.6,0.0,675,23.4,22.4,92,10.0
2022-03-15T17:15:38Z,03/15/22 13:15,7660309,0.528,0.0,661,23.4,22.5,92,10.0
2022-03-15T17:16:38Z,03/15/22 13:16,7660326,0.702,0.0,672,23.3,22.5,92,10.0
2022-03-15T17:17:38Z,03/15/22 13:17,7660342,0.55,0.002,679,23.3,22.5,92,10.0
2022-03-15T17:18:38Z,03/15/22 13:18,7660357,0.621,0.0,661,23.3,22.5,92,10.0
2022-03-15T17:19:38Z,03/15/22 13:19,7660373,0.651,0.0,661,23.3,22.5,92,10.0
2022-03-15T17:20:38Z,03/15/22 13:20,7660390,0.588,0.0,666,23.3,22.5,92,10.0
2022-03-15T17:21:38Z,03/15/22 13:21,7660405,0.696,0.0,677,23.3,22.5,92,10.0
2022-03-15T17:22:38Z,03/15/22 13:22,7660422,0.609,0.0,672,23.4,22.5,92,9.0
2022-03-15T17:23:38Z,03/15/22 13:23,7660437,0.612,0.0,669,23.4,22.5,92,9.0
2022-03-15T17:24:38Z,03/15/22 13:24,7660454,0.558,0.0,687,23.4,22.5,92,9.0
2022-03-15T17:25:38Z,03/15/22 13:25,7660469,0.5730000000000001,0.0,680,23.4,22.5,92,9.0
2022-03-15T17:26:38Z,03/15/22 13:26,7660486,0.708,0.006,656,23.4,22.6,92,9.0
2022-03-15T17:27:38Z,03/15/22 13:27,7660502,0.663,0.0,677,23.4,22.6,92,9.0
2022-03-15T17:28:38Z,03/15/22 13:28,7660518,0.6679999999999999,0.004,674,23.4,22.6,92,9.0
2022-03-15T17:29:38Z,03/15/22 13:29,7660534,0.615,0.0,679,23.4,22.6,92,9.0
2022-03-15T17:30:38Z,03/15/22 13:30,7660549,0.588,0.0,682,23.4,22.6,92,9.0
2022-03-15T17:31:38Z,03/15/22 13:31,7660566,0.522,0.0,688,23.5,22.6,92,10.0
2022-03-15T17:32:38Z,03/15/22 13:32,7660581,0.613,0.002,674,23.5,22.6,92,10.0
2022-03-15T17:33:38Z,03/15/22 13:33,7660597,0.745,0.002,670,23.5,22.6,92,9.0
2022-03-15T17:34:38Z,03/15/22 13:34,7660613,0.591,0.0,694,23.5,22.6,92,9.0
2022-03-15T17:35:38Z,03/15/22 13:35,7660629,0.532,0.002,691,23.5,22.7,92,9.0
2022-03-15T17:36:38Z,03/15/22 13:36,7660646,0.6799999999999999,0.004,703,23.5,22.7,92,7.0
2022-03-15T17:37:38Z,03/15/22 13:37,7660662,0.841,0.002,689,23.5,22.7,92,9.0
2022-03-15T17:38:38Z,03/15/22 13:38,7660678,0.608,0.004,691,23.6,22.7,92,9.0
2022-03-15T17:39:38Z,03/15/22 13:39,7660693,0.722,0.004,710,23.6,22.7,92,8.0
2022-03-15T17:40:38Z,03/15/22 13:40,7660710,0.761,0.004,698,23.6,22.7,92,9.0
2022-03-15T17:41:38Z,03/15/22 13:41,7660726,0.7230000000000001,0.0,702,23.6,22.7,92,9.0
2022-03-15T17:42:38Z,03/15/22 13:42,7660743,0.6719999999999999,0.0,700,23.6,22.7,92,8.0
2022-03-15T17:43:38Z,03/15/22 13:43,7660758,0.6809999999999999,0.0,707,23.6,22.7,92,9.0
2022-03-15T17:44:38Z,03/15/22 13:44,7660774,0.5650000000000001,0.002,729,23.6,22.7,92,9.0
2022-03-15T17:45:38Z,03/15/22 13:45,7660790,0.639,0.0,698,23.7,22.7,92,9.0
2022-03-15T17:46:38Z,03/15/22 13:46,7660806,0.662,0.004,688,23.7,22.7,92,9.0
2022-03-15T17:47:38Z,03/15/22 13:47,7660822,0.669,0.0,698,23.7,22.7,92,9.0
2022-03-15T17:48:38Z,03/15/22 13:48,7660837,0.639,0.0,685,23.7,22.7,92,9.0
2022-03-15T17:49:38Z,03/15/22 13:49,7660853,0.648,0.0,686,23.7,22.7,92,9.0
2022-03-15T17:50:38Z,03/15/22 13:50,7660870,0.653,0.01,710,23.7,22.7,92,9.0
2022-03-15T17:51:38Z,03/15/22 13:51,7660885,0.837,0.0,703,23.7,22.7,92,9.0
2022-03-15T17:52:38Z,03/15/22 13:52,7660902,0.754,0.002,698,23.7,22.7,92,9.0
2022-03-15T17:53:38Z,03/15/22 13:53,7660918,0.7150000000000001,0.002,701,23.7,22.7,92,9.0
2022-03-15T17:54:38Z,03/15/22 13:54,7660933,0.768,0.0,702,23.7,22.7,92,10.0
2022-03-15T17:55:38Z,03/15/22 13:55,7660951,0.5730000000000001,0.006,699,23.7,22.7,92,9.0
2022-03-15T17:56:38Z,03/15/22 13:56,7660965,0.571,0.002,713,23.7,22.7,92,8.0
2022-03-15T17:57:38Z,03/15/22 13:57,7660980,0.705,0.0,730,23.7,22.7,92,9.0
2022-03-15T17:58:38Z,03/15/22 13:58,7660996,0.604,0.008,709,23.7,22.7,92,9.0
2022-03-15T17:59:38Z,03/15/22 13:59,7661013,0.8470000000000001,0.002,706,23.7,22.7,92,8.0
2022-03-15T18:00:38Z,03/15/22 14:00,7661029,0.798,0.0,692,23.7,22.7,92,9.0
2022-03-15T18:01:38Z,03/15/22 14:01,7661045,0.603,0.0,716,23.7,22.7,92,9.0
2022-03-15T18:02:38Z,03/15/22 14:02,7661061,0.693,0.006,692,23.7,22.7,92,9.0
2022-03-15T18:03:38Z,03/15/22 14:03,7661076,0.504,0.0,704,23.7,22.7,92,10.0
2022-03-15T18:04:38Z,03/15/22 14:04,7661093,0.645,0.0,708,23.7,22.7,92,9.0
2022-03-15T18:05:38Z,03/15/22 14:05,7661109,0.727,0.002,684,23.7,22.7,92,10.0
2022-03-15T18:06:38Z,03/15/22 14:06,7661125,0.634,0.002,684,23.7,22.7,92,9.0
2022-03-15T18:07:38Z,03/15/22 14:07,7661140,0.636,0.0,691,23.7,22.7,92,10.0
2022-03-15T18:08:38Z,03/15/22 14:08,7661156,0.716,0.004,698,23.7,22.7,92,11.0
2022-03-15T18:09:38Z,03/15/22 14:09,7661172,0.726,0.0,707,23.7,22.7,92,11.0
2022-03-15T18:10:38Z,03/15/22 14:10,7661189,0.805,0.008,709,23.7,22.7,92,10.0
2022-03-15T18:11:38Z,03/15/22 14:11,7661205,0.6910000000000001,0.002,707,23.7,22.7,92,10.0
2022-03-15T18:12:38Z,03/15/22 14:12,7661220,0.671,0.004,707,23.7,22.7,92,9.0
2022-03-15T18:13:38Z,03/15/22 14:13,7661236,0.78,0.0,695,23.7,22.7,92,10.0
2022-03-15T18:14:38Z,03/15/22 14:14,7661252,0.702,0.0,719,23.7,22.7,92,9.0
2022-03-15T18:15:38Z,03/15/22 14:15,7661269,0.843,0.0,695,23.7,22.7,92,9.0
2022-03-15T18:16:38Z,03/15/22 14:16,7661285,0.858,0.0,707,23.7,22.7,92,9.0
2022-03-15T18:17:38Z,03/15/22 14:17,7661301,0.704,0.004,695,23.7,22.7,92,9.0